Regional Weather Roundup
Issued by NWS

Home | Current Version | Previous Version | Graphics & Text | Print | Product List | Glossary On
Versions: 1 2 3 4 5 6 7 8 9 10 11 12 13 14 15 16 17 18 19 20 21 22 23 24 25 26 27 28 29 30 31 32 33 34 35 36 37 38 39 40 41 42 43 44 45 46 47 48 49 50
000
ASUS43 KTOP 262259
RWRKS

WEATHER ROUNDUP FOR KANSAS
NATIONAL WEATHER SERVICE GOODLAND KS
600 PM CDT MON JUN 26 2017

NOTE:  "FAIR" INDICATES FEW OR NO CLOUDS BELOW 12,000 FEET WITH NO
SIGNIFICANT WEATHER AND/OR OBSTRUCTIONS TO VISIBILITY.

KSZ001>006-013>018-027>032-041>047-270000-
NORTHWEST KANSAS

CITY           SKY/WX    TMP DP  RH WIND       PRES   REMARKS
GOODLAND       CLOUDY    83  55  38 CALM      30.08F
HAYS           PTSUNNY   82  63  52 VRB5      30.05F
HILL CITY      CLOUDY    81  62  52 E9        30.07F
RUSSELL        PTSUNNY   83  62  49 NE6       30.03F
$$

KSZ061>065-074>080-084>089-270000-
SOUTHWEST KANSAS

CITY           SKY/WX    TMP DP  RH WIND       PRES   REMARKS
DODGE CITY     SUNNY     85  60  42 S9        30.06F
ELKHART          N/A     82  52  35 S3          N/A
GARDEN CITY    CLOUDY    85  59  41 SE7       30.06F
LIBERAL        MOSUNNY   87  58  37 S5        30.05F
$$

KSZ066>073-081>083-090>101-270000-
SOUTHEAST KANSAS

CITY           SKY/WX    TMP DP  RH WIND       PRES   REMARKS
CHANUTE        MOSUNNY   75  64  68 E13       30.06F
COFFEYVILLE    MOSUNNY   86  60  41 SW7       30.03F
HUTCHINSON     SUNNY     88  56  33 VRB6      30.01F
MEDICINE LODGE   N/A     88  59  37 S6        30.01F
NEWTON         MOSUNNY   86  57  37 VRB5      30.03F
PARSONS        MOSUNNY   84  61  45 S7        30.05F
WICHITA INTL   MOSUNNY   88  58  36 S6        30.01F
WICHITA JABRA  MOSUNNY   84  59  42 S8        30.02F
WINFIELD       SUNNY     85  60  42 SE9       30.03F
$$

KSZ007>012-019>026-033>040-048>060-102>105-270000-
NORTHEAST KANSAS

CITY           SKY/WX    TMP DP  RH WIND       PRES   REMARKS
CONCORDIA      CLOUDY    77  62  59 E12       30.06S
EMPORIA        SUNNY     80  62  54 E12       30.04F
LAWRENCE       PTSUNNY   72  59  63 E6        30.10F
MANHATTAN      MOSUNNY   78  61  55 E10       30.06F
OLATHE IND     SUNNY     72  55  55 SE9       30.11F
OLATHE EXE     SUNNY     69  55  60 SE10      30.11F
SALINA         CLOUDY    89  59  36 VRB5      30.00F
TOPEKA BILLARD LGT RAIN  72  61  68 E9        30.09F
TOPEKA FORBES  PTSUNNY   76  61  59 E10       30.09S
$$




USA.gov is the U.S. government's official web portal to all federal, state and local government web resources and services.